Regional Weather Roundup
Issued by NWS Lake Charles, LA

Home | Current Version | Previous Version | Text Only | Print | Product List | Glossary On
Versions: 1 2 3 4 5 6 7 8 9 10 11 12 13 14 15 16 17 18 19 20 21 22 23 24 25 26 27 28 29 30 31 32 33 34 35 36 37 38 39 40 41 42 43 44 45 46 47 48 49 50
000
ASUS44 KLCH 040210
RWRLCH
RWRLCH
REGIONAL WEATHER ROUNDUP
NATIONAL WEATHER SERVICE LAKE CHARLES LA
800 PM CST TUE MAR 03 2015

Note: "fair" indicates few or no clouds below 12,000 feet with no
significant weather and/or obstructions to visibility.


ACROSS SOUTHEAST TEXAS

CITY           SKY/WX    TMP DP  RH WIND       PRES   REMARKS
BEAUMONT       CLOUDY    69  66  90 S10       29.93R
BEAUMONT CITY  CLOUDY    68  67  94 S7        29.93R
ORANGE         CLOUDY    67  66  98 S6        29.95S FOG
JASPER         MOCLDY    68  64  85 S3        29.94S
$$

ACROSS CENTRAL LOUISIANA

CITY           SKY/WX    TMP DP  RH WIND       PRES   REMARKS
LEESVILLE      MOCLDY    69  65  87 S8        29.92R
FULLERTON      CLOUDY    72  65  78 VRB3      29.91R
ALEXANDRIA INT PTCLDY    69  65  86 S5        29.92R
ESLER FIELD    PTCLDY    70  64  81 S3        29.94R
DERIDDER       MOCLDY    69  65  88 CALM      29.95R
OAKDALE        CLOUDY    71  67  88 S5        29.94S
OPELOUSAS      MOCLDY    69  67  90 S7        29.96R
$$

ACROSS SOUTHWEST AND SOUTH CENTRAL LOUISIANA

CITY           SKY/WX    TMP DP  RH WIND       PRES   REMARKS
SULPHUR        CLOUDY    68  68  99 S9        29.95R FOG
LAKE CHARLES   CLOUDY    69  68  96 S8        29.94R
CHENNAULT INT  NOT AVBL
CAMERON PHI    FOG       61  61 100 SE8       29.97S VSB 1/4
DEQUINCY       NOT AVBL
JENNINGS       CLOUDY    69  68  95 S6        29.95R
LAFAYETTE      CLOUDY    71  68  90 S7        29.96S
NEW IBERIA     CLOUDY    68  67  96 SE8       29.97S
ABBEVILLE      NOT AVBL
PATTERSON      PTCLDY    70  66  88 SE6       29.99R
SALT POINT       N/A     64  64 100 SE6       29.98R
$$

SELECTED SITES ACROSS THE REGION

CITY           SKY/WX    TMP DP  RH WIND       PRES   REMARKS
HOUSTON BUSH   MOCLDY    71  66  84 S9        29.89R
HOUSTON HOBBY  CLOUDY    70  67  90 S9        29.90R
GALVESTON      CLOUDY    65  65 100 SE10      29.92R FOG
COLLEGE STAT   CLEAR     69  62  78 S15       29.85S
CONROE         PTCLDY    69  62  78 S10       29.89R
HUNTSVILLE     PTCLDY    69  62  78 S9        29.87R
LUFKIN         CLOUDY    72  63  73 S13       29.88R
SHREVEPORT     CLOUDY    66  63  90 SE9       29.86S
MONROE         CLEAR     61  61 100 S3        29.93R
NATCHEZ MS     MOCLDY    70  66  88 S10       29.97R
BATON ROUGE    PTCLDY    69  67  93 S7        29.98R
N.O. INTL ARPT MOCLDY    71  65  81 S8        30.01R
SLIDELL        CLOUDY    68  66  93 SE10      30.02R
$$

MARINE REPORTS

STATION/POSITION TIME  TEMP    WIND        PRES    VSBY  WAVE
                       AIR SEA DIR/SP/G                  HT/PER
                 (UTC) (F)     (DEG/KT/KT) (MB)    (MI)  (FT/S)
BUOY 30 S HIGH I 0200   64 61  110/  6/  6 1012.7R         1/ 5
SEA RIM ST PARK  0200   62     120/  6/  7 1014.1R
PORT ARTHUR      0200      57  160/  3/  6 1013.8R
SABINE PASS N    0200   62 56  150/  9/  9 1013.7S
TEXAS POINT      NOT AVBL
CALCASIEU PASS   0200   61 58  140/  8/ 10   N/A
LK CHARLES BEACH 0200   70 60              1013.9R
MARSH ISLAND     0100   65     150/ 12/ 13   N/A           0
FRESH WATER LOCK 0200   64 62  120/  8/ 10 1014.5S
AMERADA PASS     0200   68 53  150/  4/  6 1015.5R
$$



USA.gov is the U.S. government's official web portal to all federal, state and local government web resources and services.